Time,TemperatureF,DewpointF,PressureIn,WindDirection,WindDirectionDegrees,WindSpeedMPH,WindSpeedGustMPH,Humidity,HourlyPrecipIn,Conditions,Clouds,dailyrainin,SoftwareType,DateUTC
2013-01-25 00:03:00,7.0,-1.0,-100.00,NW,310,7.0,11.0,69,-99.99,,,-99.99,,2013-01-25 05:03:00,
2013-01-25 00:12:00,7.0,-1.0,-100.00,NW,310,7.0,11.0,69,-99.99,,,-99.99,,2013-01-25 05:12:00,
2013-01-25 00:22:00,7.0,-1.0,-100.00,NW,310,6.0,11.0,70,-99.99,,,-99.99,,2013-01-25 05:22:00,
2013-01-25 00:32:00,7.0,0.0,-100.00,WNW,290,6.0,11.0,70,-99.99,,,-99.99,,2013-01-25 05:32:00,
2013-01-25 00:43:00,7.0,0.0,-100.00,WNW,290,6.0,11.0,70,-99.99,,,-99.99,,2013-01-25 05:43:00,
2013-01-25 00:52:00,8.0,0.0,-100.00,NW,315,5.0,13.0,69,-99.99,,,-99.99,,2013-01-25 05:52:00,
2013-01-25 01:02:00,8.0,0.0,-100.00,NW,310,6.0,9.0,69,-99.99,,,-99.99,,2013-01-25 06:02:00,
2013-01-25 01:12:00,8.0,0.0,-100.00,NW,310,6.0,9.0,69,-99.99,,,-99.99,,2013-01-25 06:12:00,
2013-01-25 01:22:00,8.0,0.0,-100.00,WNW,300,6.0,11.0,69,-99.99,,,-99.99,,2013-01-25 06:22:00,
2013-01-25 01:32:00,8.0,-1.0,-100.00,WNW,295,6.0,9.0,68,-99.99,,,-99.99,,2013-01-25 06:32:00,
2013-01-25 01:42:00,8.0,-1.0,-100.00,WNW,295,6.0,9.0,68,-99.99,,,-99.99,,2013-01-25 06:42:00,
2013-01-25 01:52:00,8.0,-1.0,-100.00,West,275,7.0,10.0,67,-99.99,,,-99.99,,2013-01-25 06:52:00,
2013-01-25 02:02:00,8.0,-1.0,-100.00,WNW,300,7.0,11.0,67,-99.99,,,-99.99,,2013-01-25 07:02:00,
2013-01-25 02:11:00,8.0,-1.0,-100.00,WNW,300,7.0,11.0,67,-99.99,,,-99.99,,2013-01-25 07:11:00,
2013-01-25 02:22:00,8.0,-1.0,-100.00,NW,305,6.0,14.0,67,-99.99,,,-99.99,,2013-01-25 07:22:00,
2013-01-25 02:32:00,8.0,-1.0,-100.00,WNW,290,7.0,11.0,66,-99.99,,,-99.99,,2013-01-25 07:32:00,
2013-01-25 02:42:00,8.0,-1.0,-100.00,WNW,290,7.0,11.0,66,-99.99,,,-99.99,,2013-01-25 07:42:00,
2013-01-25 02:51:00,8.0,-1.0,-100.00,WNW,300,6.0,14.0,65,-99.99,,,-99.99,,2013-01-25 07:51:00,
2013-01-25 03:02:00,8.0,-1.0,-100.00,WNW,295,9.0,14.0,64,-99.99,,,-99.99,,2013-01-25 08:02:00,
2013-01-25 03:12:00,8.0,-1.0,-100.00,WNW,295,9.0,14.0,64,-99.99,,,-99.99,,2013-01-25 08:12:00,
2013-01-25 03:22:00,8.0,-1.0,-100.00,WNW,290,8.0,15.0,64,-99.99,,,-99.99,,2013-01-25 08:22:00,
2013-01-25 03:32:00,8.0,-2.0,-100.00,WNW,285,9.0,14.0,63,-99.99,,,-99.99,,2013-01-25 08:32:00,
2013-01-25 03:42:00,8.0,-2.0,-100.00,WNW,285,9.0,14.0,63,-99.99,,,-99.99,,2013-01-25 08:42:00,
2013-01-25 03:52:00,9.0,-1.0,-100.00,WNW,285,9.0,14.0,63,-99.99,,,-99.99,,2013-01-25 08:52:00,
2013-01-25 04:02:00,9.0,-1.0,-100.00,WNW,295,7.0,18.0,63,-99.99,,,-99.99,,2013-01-25 09:02:00,
2013-01-25 04:11:00,9.0,-1.0,-100.00,WNW,295,7.0,18.0,63,-99.99,,,-99.99,,2013-01-25 09:11:00,
2013-01-25 04:21:00,9.0,-1.0,-100.00,WNW,290,9.0,14.0,63,-99.99,,,-99.99,,2013-01-25 09:21:00,
2013-01-25 04:32:00,9.0,-1.0,-100.00,WNW,295,7.0,12.0,64,-99.99,,,-99.99,,2013-01-25 09:32:00,
2013-01-25 04:42:00,9.0,-1.0,-100.00,WNW,295,7.0,12.0,64,-99.99,,,-99.99,,2013-01-25 09:42:00,
2013-01-25 04:52:00,8.0,0.0,-100.00,West,280,6.0,15.0,67,-99.99,,,-99.99,,2013-01-25 09:52:00,
2013-01-25 05:02:00,8.0,1.0,-100.00,WNW,285,9.0,15.0,71,-99.99,,,-99.99,,2013-01-25 10:02:00,
2013-01-25 05:12:00,8.0,1.0,-100.00,WNW,285,9.0,15.0,71,-99.99,,,-99.99,,2013-01-25 10:12:00,
2013-01-25 05:22:00,8.0,1.0,-100.00,NW,310,8.0,12.0,72,-99.99,,,-99.99,,2013-01-25 10:22:00,
2013-01-25 05:32:00,8.0,2.0,-100.00,WNW,300,9.0,14.0,74,-99.99,,,-99.99,,2013-01-25 10:32:00,
2013-01-25 05:42:00,8.0,2.0,-100.00,WNW,300,9.0,14.0,74,-99.99,,,-99.99,,2013-01-25 10:42:00,
2013-01-25 05:51:00,8.0,2.0,-100.00,WNW,300,5.0,12.0,77,-99.99,,,-99.99,,2013-01-25 10:51:00,
2013-01-25 06:03:00,9.0,3.0,-100.00,WNW,300,9.0,16.0,79,-99.99,,,-99.99,,2013-01-25 11:03:00,
2013-01-25 06:11:00,9.0,3.0,-100.00,WNW,300,9.0,16.0,79,-99.99,,,-99.99,,2013-01-25 11:11:00,
2013-01-25 06:22:00,8.0,4.0,-100.00,NW,310,9.0,15.0,80,-99.99,,,-99.99,,2013-01-25 11:22:00,
2013-01-25 06:33:00,9.0,4.0,-100.00,NW,305,9.0,17.0,80,-99.99,,,-99.99,,2013-01-25 11:33:00,
2013-01-25 06:42:00,9.0,4.0,-100.00,NW,305,9.0,17.0,80,-99.99,,,-99.99,,2013-01-25 11:42:00,
2013-01-25 06:52:00,9.0,4.0,-100.00,WNW,290,7.0,15.0,80,-99.99,,,-99.99,,2013-01-25 11:52:00,
2013-01-25 07:03:00,9.0,4.0,-100.00,WNW,290,7.0,15.0,80,-99.99,,,-99.99,,2013-01-25 12:03:00,
2013-01-25 07:12:00,9.0,4.0,-100.00,WNW,290,7.0,15.0,80,-99.99,,,-99.99,,2013-01-25 12:12:00,
2013-01-25 07:22:00,9.0,4.0,-100.00,NW,305,7.0,14.0,81,-99.99,,,-99.99,,2013-01-25 12:22:00,
2013-01-25 07:32:00,9.0,4.0,-100.00,NW,305,8.0,14.0,81,-99.99,,,-99.99,,2013-01-25 12:32:00,
2013-01-25 07:42:00,9.0,4.0,-100.00,NW,305,8.0,14.0,81,-99.99,,,-99.99,,2013-01-25 12:42:00,
2013-01-25 07:53:00,9.0,5.0,-100.00,WNW,295,7.0,14.0,82,-99.99,,,-99.99,,2013-01-25 12:53:00,
2013-01-25 08:03:00,9.0,5.0,-100.00,NW,315,9.0,16.0,82,-99.99,,,-99.99,,2013-01-25 13:03:00,
2013-01-25 08:12:00,9.0,5.0,-100.00,NW,315,9.0,16.0,82,-99.99,,,-99.99,,2013-01-25 13:12:00,
2013-01-25 08:22:00,9.0,5.0,-100.00,WNW,290,9.0,14.0,82,-99.99,,,-99.99,,2013-01-25 13:22:00,
2013-01-25 08:33:00,10.0,5.0,-100.00,West,280,6.0,15.0,82,-99.99,,,-99.99,,2013-01-25 13:33:00,
2013-01-25 08:43:00,10.0,5.0,-100.00,West,280,6.0,15.0,82,-99.99,,,-99.99,,2013-01-25 13:43:00,
2013-01-25 08:52:00,10.0,6.0,-100.00,WNW,295,8.0,14.0,83,-99.99,,,-99.99,,2013-01-25 13:52:00,
2013-01-25 09:03:00,10.0,6.0,-100.00,WNW,295,9.0,16.0,83,-99.99,,,-99.99,,2013-01-25 14:03:00,
2013-01-25 09:13:00,10.0,6.0,-100.00,WNW,295,9.0,16.0,83,-99.99,,,-99.99,,2013-01-25 14:13:00,
2013-01-25 09:23:00,10.0,6.0,-100.00,WNW,295,8.0,16.0,83,-99.99,,,-99.99,,2013-01-25 14:23:00,
2013-01-25 09:33:00,10.0,6.0,-100.00,WNW,300,8.0,15.0,83,-99.99,,,-99.99,,2013-01-25 14:33:00,
2013-01-25 09:42:00,10.0,6.0,-100.00,WNW,300,8.0,15.0,83,-99.99,,,-99.99,,2013-01-25 14:42:00,
2013-01-25 09:53:00,11.0,7.0,-100.00,WNW,295,8.0,16.0,82,-99.99,,,-99.99,,2013-01-25 14:53:00,
2013-01-25 10:03:00,11.0,7.0,-100.00,West,280,11.0,19.0,82,-99.99,,,-99.99,,2013-01-25 15:03:00,
2013-01-25 10:13:00,11.0,7.0,-100.00,West,280,11.0,19.0,82,-99.99,,,-99.99,,2013-01-25 15:13:00,
2013-01-25 10:22:00,12.0,7.0,-100.00,WNW,290,9.0,18.0,80,-99.99,,,-99.99,,2013-01-25 15:22:00,
2013-01-25 10:33:00,13.0,7.0,-100.00,West,275,8.0,18.0,78,-99.99,,,-99.99,,2013-01-25 15:33:00,
2013-01-25 10:42:00,13.0,7.0,-100.00,West,275,8.0,18.0,78,-99.99,,,-99.99,,2013-01-25 15:42:00,
2013-01-25 10:52:00,13.0,7.0,-100.00,WNW,290,12.0,21.0,77,-99.99,,,-99.99,,2013-01-25 15:52:00,
2013-01-25 11:03:00,13.0,7.0,-100.00,West,280,14.0,21.0,77,-99.99,,,-99.99,,2013-01-25 16:03:00,
2013-01-25 11:12:00,13.0,7.0,-100.00,West,280,14.0,21.0,77,-99.99,,,-99.99,,2013-01-25 16:12:00,
2013-01-25 11:23:00,13.0,7.0,-100.00,West,275,14.0,21.0,76,-99.99,,,-99.99,,2013-01-25 16:23:00,
2013-01-25 11:33:00,14.0,8.0,-100.00,West,275,9.0,21.0,76,-99.99,,,-99.99,,2013-01-25 16:33:00,
2013-01-25 11:43:00,14.0,8.0,-100.00,West,275,9.0,21.0,76,-99.99,,,-99.99,,2013-01-25 16:43:00,
2013-01-25 11:52:00,14.0,8.0,-100.00,WNW,290,11.0,20.0,77,-99.99,,,-99.99,,2013-01-25 16:52:00,
2013-01-25 12:03:00,14.0,9.0,-100.00,WNW,295,14.0,19.0,78,-99.99,,,-99.99,,2013-01-25 17:03:00,
2013-01-25 12:12:00,14.0,9.0,-100.00,WNW,295,14.0,19.0,78,-99.99,,,-99.99,,2013-01-25 17:12:00,
2013-01-25 12:22:00,15.0,9.0,-100.00,West,275,10.0,21.0,77,-99.99,,,-99.99,,2013-01-25 17:22:00,
2013-01-25 12:33:00,16.0,10.0,-100.00,WNW,290,11.0,21.0,74,-99.99,,,-99.99,,2013-01-25 17:33:00,
2013-01-25 12:43:00,16.0,10.0,-100.00,WNW,290,11.0,21.0,74,-99.99,,,-99.99,,2013-01-25 17:43:00,
2013-01-25 12:53:00,16.0,10.0,-100.00,West,270,15.0,21.0,75,-99.99,,,-99.99,,2013-01-25 17:53:00,
2013-01-25 13:03:00,17.0,10.0,-100.00,WNW,290,11.0,20.0,74,-99.99,,,-99.99,,2013-01-25 18:03:00,
2013-01-25 13:12:00,17.0,10.0,-100.00,WNW,290,11.0,20.0,74,-99.99,,,-99.99,,2013-01-25 18:12:00,
2013-01-25 13:23:00,17.0,10.0,-100.00,WNW,290,14.0,21.0,73,-99.99,,,-99.99,,2013-01-25 18:23:00,
2013-01-25 13:33:00,17.0,10.0,-100.00,West,280,10.0,20.0,71,-99.99,,,-99.99,,2013-01-25 18:33:00,
2013-01-25 13:42:00,17.0,10.0,-100.00,West,280,10.0,20.0,71,-99.99,,,-99.99,,2013-01-25 18:42:00,
2013-01-25 13:52:00,17.0,10.0,-100.00,WNW,285,13.0,21.0,72,-99.99,,,-99.99,,2013-01-25 18:52:00,
2013-01-25 14:03:00,18.0,11.0,-100.00,WNW,285,9.0,17.0,72,-99.99,,,-99.99,,2013-01-25 19:03:00,
2013-01-25 14:12:00,18.0,11.0,-100.00,WNW,285,9.0,17.0,72,-99.99,,,-99.99,,2013-01-25 19:12:00,
2013-01-25 14:23:00,19.0,11.0,-100.00,West,275,11.0,16.0,70,-99.99,,,-99.99,,2013-01-25 19:23:00,
2013-01-25 14:33:00,19.0,11.0,-100.00,WNW,285,9.0,18.0,70,-99.99,,,-99.99,,2013-01-25 19:33:00,
2013-01-25 14:42:00,19.0,11.0,-100.00,WNW,285,9.0,18.0,70,-99.99,,,-99.99,,2013-01-25 19:42:00,
2013-01-25 14:52:00,18.0,11.0,-100.00,West,270,11.0,19.0,72,-99.99,,,-99.99,,2013-01-25 19:52:00,
2013-01-25 15:03:00,19.0,12.0,-100.00,WNW,290,9.0,14.0,72,-99.99,,,-99.99,,2013-01-25 20:03:00,
2013-01-25 15:12:00,19.0,12.0,-100.00,WNW,290,9.0,14.0,72,-99.99,,,-99.99,,2013-01-25 20:12:00,
2013-01-25 15:23:00,19.0,11.0,-100.00,West,260,10.0,14.0,71,-99.99,,,-99.99,,2013-01-25 20:23:00,
2013-01-25 15:33:00,19.0,12.0,-100.00,West,265,5.0,14.0,73,-99.99,,,-99.99,,2013-01-25 20:33:00,
2013-01-25 15:43:00,19.0,12.0,-100.00,West,265,5.0,14.0,73,-99.99,,,-99.99,,2013-01-25 20:43:00,
2013-01-25 15:52:00,19.0,13.0,-100.00,WSW,255,9.0,14.0,78,-99.99,,,-99.99,,2013-01-25 20:52:00,
2013-01-25 16:02:00,19.0,12.0,-100.00,WSW,255,9.0,16.0,76,-99.99,,,-99.99,,2013-01-25 21:02:00,
2013-01-25 16:12:00,19.0,12.0,-100.00,WSW,255,9.0,16.0,76,-99.99,,,-99.99,,2013-01-25 21:12:00,
2013-01-25 16:23:00,19.0,13.0,-100.00,West,280,9.0,15.0,75,-99.99,,,-99.99,,2013-01-25 21:23:00,
2013-01-25 16:33:00,19.0,13.0,-100.00,West,260,11.0,14.0,78,-99.99,,,-99.99,,2013-01-25 21:33:00,
2013-01-25 16:42:00,19.0,13.0,-100.00,West,260,11.0,14.0,78,-99.99,,,-99.99,,2013-01-25 21:42:00,
2013-01-25 16:52:00,18.0,14.0,-100.00,West,260,8.0,11.0,81,-99.99,,,-99.99,,2013-01-25 21:52:00,
2013-01-25 17:03:00,18.0,14.0,-100.00,West,260,6.0,11.0,83,-99.99,,,-99.99,,2013-01-25 22:03:00,
2013-01-25 17:12:00,18.0,14.0,-100.00,West,260,6.0,11.0,83,-99.99,,,-99.99,,2013-01-25 22:12:00,
2013-01-25 17:23:00,18.0,15.0,-100.00,WSW,245,6.0,9.0,85,-99.99,,,-99.99,,2013-01-25 22:23:00,
2013-01-25 17:33:00,19.0,15.0,-100.00,SW,225,5.0,11.0,86,-99.99,,,-99.99,,2013-01-25 22:33:00,
2013-01-25 17:42:00,19.0,15.0,-100.00,SW,225,5.0,11.0,86,-99.99,,,-99.99,,2013-01-25 22:42:00,
2013-01-25 17:52:00,18.0,15.0,-100.00,WSW,255,5.0,9.0,87,-99.99,,,-99.99,,2013-01-25 22:52:00,
2013-01-25 18:02:00,18.0,15.0,-100.00,WSW,250,4.0,8.0,88,-99.99,,,-99.99,,2013-01-25 23:02:00,
2013-01-25 18:12:00,18.0,15.0,-100.00,WSW,250,4.0,8.0,88,-99.99,,,-99.99,,2013-01-25 23:12:00,
2013-01-25 18:22:00,18.0,15.0,-100.00,SW,235,4.0,6.0,88,-99.99,,,-99.99,,2013-01-25 23:22:00,
2013-01-25 18:32:00,18.0,15.0,-100.00,WSW,240,4.0,7.0,89,-99.99,,,-99.99,,2013-01-25 23:32:00,
2013-01-25 18:42:00,18.0,15.0,-100.00,WSW,240,4.0,7.0,89,-99.99,,,-99.99,,2013-01-25 23:42:00,
2013-01-25 18:52:00,18.0,15.0,-100.00,WSW,255,4.0,7.0,89,-99.99,,,-99.99,,2013-01-25 23:52:00,
2013-01-25 19:02:00,18.0,15.0,-100.00,SW,230,1.0,5.0,89,-99.99,,,-99.99,,2013-01-26 00:02:00,
2013-01-25 19:12:00,18.0,15.0,-100.00,SW,230,1.0,5.0,89,-99.99,,,-99.99,,2013-01-26 00:12:00,
2013-01-25 19:22:00,18.0,15.0,-100.00,WSW,240,1.0,3.0,89,-99.99,,,-99.99,,2013-01-26 00:22:00,
2013-01-25 19:32:00,18.0,15.0,-100.00,West,260,1.0,3.0,89,-99.99,,,-99.99,,2013-01-26 00:32:00,
2013-01-25 19:42:00,18.0,15.0,-100.00,West,260,1.0,3.0,89,-99.99,,,-99.99,,2013-01-26 00:42:00,
2013-01-25 19:53:00,18.0,15.0,-100.00,WSW,245,1.0,4.0,89,-99.99,,,-99.99,,2013-01-26 00:53:00,
2013-01-25 20:02:00,17.0,14.0,-100.00,WSW,255,2.0,4.0,89,-99.99,,,-99.99,,2013-01-26 01:02:00,
2013-01-25 20:12:00,17.0,14.0,-100.00,WSW,255,2.0,4.0,89,-99.99,,,-99.99,,2013-01-26 01:12:00,
2013-01-25 20:22:00,17.0,14.0,-100.00,West,280,2.0,4.0,90,-99.99,,,-99.99,,2013-01-26 01:22:00,
2013-01-25 20:32:00,16.0,14.0,-100.00,SSW,210,2.0,4.0,90,-99.99,,,-99.99,,2013-01-26 01:32:00,
2013-01-25 20:42:00,16.0,14.0,-100.00,SSW,210,2.0,4.0,90,-99.99,,,-99.99,,2013-01-26 01:42:00,
2013-01-25 20:52:00,16.0,13.0,-100.00,SW,215,2.0,4.0,90,-99.99,,,-99.99,,2013-01-26 01:52:00,
2013-01-25 21:02:00,15.0,13.0,-100.00,SW,215,1.0,4.0,90,-99.99,,,-99.99,,2013-01-26 02:02:00,
2013-01-25 21:12:00,15.0,13.0,-100.00,SW,215,1.0,4.0,90,-99.99,,,-99.99,,2013-01-26 02:12:00,
2013-01-25 21:22:00,14.0,12.0,-100.00,SW,215,1.0,3.0,90,-99.99,,,-99.99,,2013-01-26 02:22:00,
2013-01-25 21:32:00,13.0,11.0,-100.00,SW,225,1.0,2.0,90,-99.99,,,-99.99,,2013-01-26 02:32:00,
2013-01-25 21:42:00,13.0,11.0,-100.00,SW,225,1.0,2.0,90,-99.99,,,-99.99,,2013-01-26 02:42:00,
2013-01-25 21:52:00,13.0,11.0,-100.00,SSW,205,1.0,3.0,90,-99.99,,,-99.99,,2013-01-26 02:52:00,
2013-01-25 22:02:00,11.0,9.0,-100.00,WSW,240,0.0,2.0,89,-99.99,,,-99.99,,2013-01-26 03:02:00,
2013-01-25 22:12:00,11.0,9.0,-100.00,WSW,240,0.0,2.0,89,-99.99,,,-99.99,,2013-01-26 03:12:00,
2013-01-25 22:22:00,11.0,8.0,-100.00,WSW,250,1.0,2.0,89,-99.99,,,-99.99,,2013-01-26 03:22:00,
2013-01-25 22:32:00,10.0,8.0,-100.00,SW,215,1.0,2.0,89,-99.99,,,-99.99,,2013-01-26 03:32:00,
2013-01-25 22:43:00,10.0,8.0,-100.00,SW,215,1.0,2.0,89,-99.99,,,-99.99,,2013-01-26 03:43:00,
2013-01-25 22:52:00,11.0,8.0,-100.00,SW,235,1.0,3.0,89,-99.99,,,-99.99,,2013-01-26 03:52:00,
2013-01-25 23:02:00,11.0,8.0,-100.00,SW,230,1.0,4.0,89,-99.99,,,-99.99,,2013-01-26 04:02:00,
2013-01-25 23:12:00,11.0,8.0,-100.00,SW,230,1.0,4.0,89,-99.99,,,-99.99,,2013-01-26 04:12:00,
2013-01-25 23:21:00,10.0,7.0,-100.00,SW,230,1.0,2.0,88,-99.99,,,-99.99,,2013-01-26 04:21:00,
2013-01-25 23:32:00,12.0,9.0,-100.00,SW,230,1.0,4.0,89,-99.99,,,-99.99,,2013-01-26 04:32:00,
2013-01-25 23:42:00,12.0,9.0,-100.00,SW,230,1.0,4.0,89,-99.99,,,-99.99,,2013-01-26 04:42:00,
2013-01-25 23:52:00,12.0,9.0,-100.00,South,190,1.0,4.0,89,-99.99,,,-99.99,,2013-01-26 04:52:00,